Regional Weather Roundup
Issued by NWS

Home | Current Version | Previous Version | Text Only | Print | Product List | Glossary Off
Versions: 1 2 3 4 5 6 7 8 9 10 11 12 13 14 15 16 17 18 19 20 21 22 23 24 25 26 27 28 29 30 31 32 33 34 35 36 37 38 39 40 41 42 43 44 45 46 47 48 49 50

125
ASUS43 KMPX 182010
RWRMN
WEATHER ROUNDUP FOR MINNESOTA
NATIONAL WEATHER SERVICE TWIN CITIES/CHANHASSEN MN
300 PM CDT WED OCT 18 2017


NOTE: "FAIR" INDICATES FEW OR NO CLOUDS BELOW 12,000 FEET WITH NO
SIGNIFICANT WEATHER AND/OR OBSTRUCTIONS TO VISIBILITY. N/A MEANS
CURRENT SKY AND/OR WEATHER CONDITIONS ARE NOT AVAILABLE.

MNZ060>063-068>070-182100-
   Twin Cities Metro

CITY           SKY/WX    TMP DP  RH WIND       PRES   REMARKS
TWIN CITIES    CLOUDY    70  45  40 W10       29.84F
ST PAUL        SUNNY     69  45  41 W9        29.84F
CRYSTAL        SUNNY     70  41  34 W9        29.82F
BLAINE         MOSUNNY   72  45  37 SW10      29.82F
LAKEVILLE      CLOUDY    70  43  37 W10       29.86S
EDEN PRAIRIE   SUNNY     72  40  31 W13       29.84S
SOUTH ST PAUL  MOSUNNY   69  43  38 W10       29.84S
LAKE ELMO      FAIR      68  45  42 W12       29.85R
$$
MNZ001>005-007-008-013>017-022>024-027-028-182100-
   Northwest Minnesota

CITY           SKY/WX    TMP DP  RH WIND       PRES   REMARKS
BEMIDJI        SUNNY     59  18  20 W29G36    29.78R
HALLOCK        SUNNY     61   0   8 W32G41    29.71S
ROSEAU         SUNNY     61  14  16 SW21G40   29.66S
WARROAD        SUNNY     57  19  23 W28G40    29.65S
THIEF RVR FALL SUNNY     59  13  16 W30G40    29.77S
CROOKSTON      SUNNY     61  16  17 W31G39    29.80S
FOSSTON        SUNNY     61  14  16 W26G32    29.81R
DETROIT LAKES  SUNNY     61  18  18 W22G31    29.85R
MOORHEAD       SUNNY     63  12  14 W23G32    29.87R
PARK RAPIDS    SUNNY     61  20  20 W24G36    29.80S
MAHNOMEN       FAIR      61  17  17 W23G30    29.82R
$$
MNZ006-009>011-018-025>026-182100-
   North Central Minnesota

CITY           SKY/WX    TMP DP  RH WIND       PRES   REMARKS
BAUDETTE       CLOUDY    59  19  21 W24G39    29.66R
FLAG ISLAND    SUNNY     55  18  22 W23G41    29.57S
INTL FALLS     SUNNY     61  21  21 W16G31    29.64R
WASKISH        MOSUNNY   57  34  41 W17G24      N/A
BIG FORK       SUNNY     61  18  18 W12G23    29.72R
LONGVILLE      SUNNY     64  12  13 W20G25    29.77R
GRAND RAPIDS   SUNNY     62  17  17 W10G23    29.76R
CRANE LAKE     SUNNY     63   3   9 W13G25    29.65R
ORR            SUNNY     64  12  13 W14G26    29.64R
COOK           SUNNY     63  16  16 W23G36    29.68R
WALKER         FAIR      60  18  19 W18G30    29.77R
$$
MNZ012-019>021-037-182100-
   Northeast Minnesota

CITY           SKY/WX    TMP DP  RH WIND       PRES   REMARKS
DULUTH         MOSUNNY   67  33  28 W25G31    29.70S
ELY            SUNNY     63  23  22 W20G28    29.64R
HIBBING        SUNNY     63  26  24 W14G22    29.70R
EVELETH        SUNNY     64   1   8 W24G32    29.70R
DULUTH HARBOR  SUNNY     70  43  37 SW20      29.68F
TWO HARBORS    CLOUDY    72  41  33 W21G28    29.64S
SILVER BAY     CLOUDY    72  32  23 W10G22    29.61F
GRAND MARAIS     N/A     58  50  75 W12G22    29.57F
G MARAIS ARPRT MOSUNNY   64  34  32 SW9G18    29.60S
$$
MNZ029>031-032-039>041-046>048-054>057-064-182100-
   West Central Minnesota

CITY           SKY/WX    TMP DP  RH WIND       PRES   REMARKS
FERGUS FALLS   CLOUDY    61  28  29 W21G26    29.89S
WHEATON        CLOUDY    59  21  23 W14       29.95R
MORRIS         CLOUDY    61  28  29 NW20      29.92R
ALEXANDRIA     MOSUNNY   60  20  21 W17G24    29.90R
ELBOW LAKE     FAIR      58  25  28 NW15G21   29.91R
WADENA         CLOUDY    61  27  27 W13G24    29.83S
GLENWOOD       MOSUNNY   61  21  21 W21G28    29.90R
APPLETON       MOSUNNY   66  21  18 NW14G21   29.92R
BENSON         SUNNY     66  25  20 N21       29.92R
ORTONVILLE     CLOUDY    61  21  21 NW15G21   29.95R
MADISON        SUNNY     66  25  20 NW18      29.94R
WILLMAR        FAIR      68  30  24 NW18G26   29.90R
$$
MNZ033>034-036-042>043-049>051-058-059-182100-
   Central Minnesota

CITY           SKY/WX    TMP DP  RH WIND       PRES   REMARKS
ST CLOUD       SUNNY     69  27  20 W20G26    29.82S
SAUK CENTRE    FAIR      63  29  27 W16G25    29.87R
PAYNESVILLE    SUNNY     67  29  23 NW17G28   29.87R
AITKIN         SUNNY     64  19  17 W9G26     29.77R
PINE RIVER     SUNNY     61  25  25 W12G24    29.82F
BRAINERD       SUNNY     63  19  18 W17       29.80S
STAPLES        CLOUDY    61  16  17 W14       29.83R
LONG PRAIRIE   FAIR      61  28  29 W10G17    29.86R
LITTLE FALLS   SUNNY     63   9  12 W14G20    29.84R
LITCHFIELD     SUNNY     70  30  23 NW12G20   29.87R
BUFFALO        SUNNY     70  32  24 W13       29.84F
MAPLE LAKE     SUNNY     71  34  26 W14       29.85S
HUTCHINSON     SUNNY     72  36  26 W12G17    29.88R
$$
MNZ037-044-045-052-053-182100-
   East Central Minnesota

CITY           SKY/WX    TMP DP  RH WIND       PRES   REMARKS
PRINCETON      SUNNY     73  30  20 W9G21     29.81S
MORA           SUNNY     68  34  28 W13G18    29.80S
CAMBRIDGE      SUNNY     73  46  38 W12G18    29.80F
RUSH CITY      SUNNY     69  41  36 SW12      29.78F
MOOSE LAKE     SUNNY     70  34  26 W12G22    29.72S
HINCKLEY       FAIR      70  36  28 W14G22    29.77F
CLOQUET        SUNNY     68  19  15 W24G31    29.72R
MCGREGOR       SUNNY     64  23  20 W16G23    29.77R
$$
MNZ071>073-080-081-089-090-097-098-182100-
   Southwest Minnesota

CITY           SKY/WX    TMP DP  RH WIND       PRES   REMARKS
MONTEVIDEO     SUNNY     70  28  21 N14       29.92R
GRANITE FALLS  SUNNY     70  32  24 NW13G18   29.93R
CANBY          SUNNY     67  25  20 N12G17    29.95R
MARSHALL       SUNNY     69  28  21 NW20      29.93R
REDWOOD FALLS  SUNNY     72  29  20 NW12      29.90R
OLIVIA         SUNNY     70  34  26 NW16G22   29.89R
PIPESTONE      SUNNY     70  30  23 N12G17    29.95R
WORTHINGTON    SUNNY     72  34  24 N15       29.94R
JACKSON        SUNNY     70  32  24 N9G17     29.92S
TRACY          SUNNY     71  34  25 NW10G17   29.93R
SLAYTON        SUNNY     69   2   7 N13       29.95R
$$
MNZ065>067-074>077-082>085-091>093-182100-
   South Central Minnesota

CITY           SKY/WX    TMP DP  RH WIND       PRES   REMARKS
MANKATO        CLOUDY    71  39  31 NW12      29.88S
NEW ULM        SUNNY     72  36  26 N10G21    29.89R
ST JAMES       SUNNY     73  34  23 N10G16    29.90S
FAIRMONT       CLOUDY    73  37  27 NW17      29.90F
GLENCOE        SUNNY     73  32  22 NW9       29.86S
FARIBAULT      CLOUDY    72  45  37 W9        29.88S
OWATONNA       MOSUNNY   72  48  43 W13       29.89R
WASECA         MOSUNNY   72  45  37 W9        29.91R
$$
MNZ078>079-086>088-094>096-182100-
   Southeast Minnesota

CITY           SKY/WX    TMP DP  RH WIND       PRES   REMARKS
ROCHESTER      MOSUNNY   71  50  47 W26       29.88R
RED WING       MOSUNNY   72  43  35 W15       29.84R
STANTON        MOSUNNY   70  45  40 W8        29.86R
DODGE CENTER   MOSUNNY   68  45  42 W20       29.89R
WINONA         PTSUNNY   73  46  38 SW8G18    29.84S
AUSTIN         MOSUNNY   72  46  40 SW16G22   29.89R
PRESTON        MOSUNNY   70  47  43 SW14G23   29.87F
$$
ABBREVIATIONS USED IN REMARKS
   TC - TEMPERATURES IN CELSIUS
  WCI - WIND CHILL INDEX
   HX - HEAT INDEX
  VSB - VISIBILITY
$$




USA.gov is the U.S. government's official web portal to all federal, state and local government web resources and services.